FW0274 Weather Reports


time (UTC)temp
C
wind
direction
speed
KPH
gust
KPH
rain 1hr
cm
rain 24hr
cm
rain mn
cm
humidity
%
barometer
mb
20260502220046 7 360 0.0 0.0 0.00 0.05 0.03 65 1017.9
20260502214546 6 344 0.0 8.0 0.00 0.08 0.03 62 1017.9
20260502213045 6 28 1.6 8.0 0.00 0.08 0.03 64 1017.9
20260502211544 7 18 0.0 6.4 0.00 0.08 0.03 66 1017.8
20260502210043 7 314 0.0 8.0 0.00 0.08 0.03 67 1017.7
20260502204543 7 350 0.0 8.0 0.00 0.08 0.03 63 1017.6
20260502203043 7 338 0.0 1.6 0.00 0.08 0.03 63 1017.7
20260502201548 7 288 0.0 6.4 0.00 0.08 0.03 63 1017.8
20260502200042 7 360 0.0 8.0 0.00 0.08 0.03 64 1017.8
20260502194541 7 15 0.0 1.6 0.00 0.08 0.03 64 1017.9
20260502193049 7 9 1.6 9.7 0.00 0.08 0.03 64 1018.0
20260502191545 7 32 0.0 9.7 0.00 0.08 0.03 66 1018.0
20260502190040 7 351 0.0 6.4 0.00 0.08 0.03 67 1018.1
20260502184552 6 296 0.0 6.4 0.00 0.10 0.03 63 1018.1
20260502183038 7 17 3.2 12.9 0.00 0.10 0.03 61 1018.1
20260502181539 6 301 0.0 3.2 0.00 0.10 0.03 61 1018.1
20260502163032 6 346 0.0 8.0 0.00 0.10 0.03 63 1018.3
20260502161530 6 283 0.0 1.6 0.00 0.10 0.03 64 1018.5
20260502151524 6 348 1.6 12.9 0.00 0.20 0.03 72 1018.5
20260502123005 2 315 0.0 1.6 0.00 0.25 0.03 79 1017.8
20260502121512 2 332 0.0 0.0 0.00 0.25 0.03 78 1017.7
20260502114600 2 320 0.0 0.0 0.00 0.25 0.03 73 1017.5
20260502113059 1 285 0.0 0.0 0.00 0.25 0.03 69 1017.6
20260502111616 1 285 0.0 0.0 0.00 0.25 0.03 69 1017.4
20260502110058 1 284 0.0 0.0 0.00 0.25 0.03 69 1017.4
20260502104556 1 284 0.0 0.0 0.00 0.25 0.03 71 1017.4
20260502101609 1 284 0.0 0.0 0.00 0.25 0.03 69 1017.2
20260502071534 2 280 0.0 0.0 0.00 0.23 0.00 62 1016.8
20260502070033 3 280 0.0 0.0 0.00 0.23 0.00 60 1017.0
20260502064534 3 286 0.0 0.0 0.00 0.23 0.00 59 1017.1
20260502063031 3 241 0.0 0.0 0.00 0.23 0.00 57 1017.1
20260502061528 3 278 0.0 3.2 0.00 0.23 0.00 57 1017.3
20260502060026 3 307 0.0 0.0 0.00 0.23 0.00 57 1017.3
20260502054533 3 310 0.0 0.0 0.00 0.23 0.00 57 1017.4
20260502053026 3 310 0.0 0.0 0.00 0.23 0.00 57 1017.4
20260502051524 4 310 0.0 0.0 0.00 0.23 0.00 57 1017.3
20260502050030 4 313 0.0 0.0 0.00 0.23 0.00 56 1017.5
20260502044519 3 325 0.0 0.0 0.00 0.23 0.00 56 1017.5
20260502043017 3 325 0.0 0.0 0.00 0.23 0.00 59 1017.5
20260502041516 3 325 0.0 0.0 0.00 0.23 0.00 60 1017.5
20260502040012 3 325 0.0 0.0 0.00 0.23 0.00 62 1017.3
20260502034511 3 325 0.0 0.0 0.00 0.23 0.23 62 1017.2
20260502033009 3 325 0.0 0.0 0.00 0.23 0.23 64 1017.4
20260502031508 4 325 0.0 0.0 0.00 0.23 0.23 64 1017.5
20260502030105 4 325 0.0 0.0 0.00 0.23 0.23 65 1017.5
20260502024504 5 325 0.0 0.0 0.00 0.23 0.23 65 1017.5
20260502023003 5 329 0.0 0.0 0.00 0.23 0.23 64 1017.7
20260502021502 5 5 0.0 0.0 0.00 0.23 0.23 65 1017.4
20260502020100 5 5 0.0 0.0 0.00 0.23 0.23 68 1017.0
20260502014559 5 5 0.0 0.0 0.03 0.23 0.23 69 1017.0
20260502013057 5 5 0.0 0.0 0.03 0.23 0.23 72 1016.8
20260502011602 5 5 0.0 0.0 0.03 0.23 0.23 76 1016.2
20260502010055 5 5 0.0 0.0 0.03 0.23 0.23 79 1016.1
20260502004608 6 5 0.0 6.4 0.00 0.20 0.20 79 1016.1
20260502003055 7 28 1.6 11.3 0.00 0.20 0.20 76 1016.3
20260502001553 7 360 0.0 1.6 0.00 0.20 0.20 78 1016.1
20260502000058 7 50 0.0 6.4 0.00 0.20 0.20 77 1015.7
20260501234548 7 9 0.0 3.2 0.00 0.20 0.20 76 1015.4
20260501233048 8 17 0.0 0.0 0.00 0.20 0.20 72 1015.1
20260501231547 8 329 0.0 6.4 0.00 0.20 0.20 73 1015.0
20260501230046 8 301 0.0 1.6 0.00 0.20 0.20 72 1015.0
20260501224546 8 302 0.0 4.8 0.00 0.20 0.20 73 1015.1
20260501223047 8 336 0.0 8.0 0.00 0.20 0.20 75 1015.2
20260501221545 8 5 0.0 0.0 0.00 0.20 0.20 78 1015.2